SCP
0 0 0 0 0 1 1 1 1 0 1 1 1 1 0 0 0 0 0 0 0 0 0 0 0 0 0 0 0 0 0 0 0 0 0 0 0 0 0 0 0 0 0
0 0 0 0 0 1 1 1 1 1 1 1 1 0 0 0 0 0 0 1 0 0 0 0 0 0 0 0 0 0 0 0 0 0 0 0 0 0 0 0 0 0 0
0 0 0 0 0 0 1 1 1 1 1 1 1 0 0 0 0 0 0 0 0 0 0 0 0 0 0 0 0 0 0 0 0 0 0 0 0 0 0 0 0 0 0
0 0 0 0 0 0 0 0 0 1 1 1 1 0 0 0 0 1 0 0 0 0 0 0 0 0 0 0 0 0 0 0 0 0 0 0 0 0 0 0 0 0 0
0 0 0 0 0 0 0 0 0 0 0 0 0 0 0 0 0 0 0 0 0 0 0 0 0 0 0 0 0 0 0 0 0 0 0 0 0 0 0 0 0 0 0
0 0 0 0 0 0 0 0 0 0 0 0 0 0 0 0 0 0 0 0 0 0 0 0 0 0 0 0 0 0 0 0 0 0 0 0 0 0 0 0 0 0 0
0 0 0 0 0 0 0 0 0 0 0 0 0 0 0 0 0 0 0 0 0 0 0 0 0 0 0 0 0 0 0 0 0 0 0 0 0 0 0 0 0 0 0
0 0 0 0 0 0 0 0 0 0 0 0 0 0 0 0 0 0 0 0 0 0 0 0 0 0 0 0 0 0 0 0 0 0 0 0 0 0 0 0 0 0 0
0 0 0 0 0 0 0 0 0 0 0 0 0 0 0 0 0 0 0 0 0 0 0 0 0 0 0 0 0 0 0 0 0 0 0 0 0 0 0 0 0 0 0
0 0 0 0 0 0 0 0 0 0 0 0 0 0 0 0 0 0 0 0 0 0 0 0 0 0 0 0 0 0 0 0 0 0 0 0 0 0 0 0 0 0 0
0 0 0 0 0 0 0 0 0 0 0 0 0 0 0 0 0 0 0 0 0 0 0 0 0 0 0 0 0 0 0 0 0 0 0 0 0 0 0 0 0 0 0
0 0 0 0 0 0 0 0 0 0 0 0 0 0 0 0 0 0 0 0 0 0 0 0 0 0 0 0 0 0 0 0 0 0 0 0 0 0 0 0 0 0 0
0 0 0 0 0 0 0 0 0 0 0 0 0 0 0 0 0 0 0 0 0 0 0 0 0 0 0 0 0 0 0 0 0 0 0 0 0 0 0 0 0 0 0
0 0 0 0 0 0 0 0 0 0 0 0 0 0 0 0 0 0 0 0 0 0 0 0 0 0 0 0 0 0 0 0 0 0 0 0 0 0 0 0 0 0 0
0 0 0 0 0 0 0 0 0 0 0 0 0 0 0 0 0 0 0 0 0 0 0 0 0 0 0 0 0 0 0 0 0 0 0 0 0 0 0 0 0 0 0
0 0 0 0 0 0 0 0 0 0 0 0 0 0 0 0 0 0 0 0 0 0 0 0 0 0 0 0 0 0 0 0 0 0 0 0 0 0 0 0 0 0 0
0 0 0 0 0 0 0 0 0 0 0 0 0 0 0 0 0 0 0 0 0 0 0 0 0 0 0 0 0 0 0 0 0 0 0 0 0 0 0 0 0 0 0
0 0 0 0 0 0 0 0 0 0 0 0 0 0 0 0 0 0 0 0 0 0 0 0 0 0 0 0 0 0 0 0 0 0 0 0 0 0 0 0 0 0 0
0 0 0 0 0 0 0 0 0 0 0 0 0 0 0 0 0 0 0 0 0 0 0 0 0 0 0 0 0 0 0 0 0 0 0 0 0 0 0 0 0 0 0
0 0 0 0 0 0 0 0 0 0 0 0 0 0 0 0 0 0 0 0 0 0 0 0 0 0 0 0 0 0 0 0 0 0 0 0 0 0 0 0 0 0 0
0 0 0 0 0 0 0 0 0 0 0 0 0 0 0 0 0 0 0 0 0 0 0 0 0 0 0 0 0 0 0 0 0 0 0 0 0 0 0 0 0 0 0
0 0 0 0 0 0 0 0 0 0 0 0 0 0 0 0 0 0 0 0 0 0 0 0 0 0 0 0 0 0 0 0 0 0 0 0 0 0 0 0 0 0 0
0 0 0 0 0 0 0 0 0 0 0 0 0 0 0 0 0 0 0 0 0 0 0 0 0 0 0 0 0 0 0 0 0 0 0 0 0 0 0 0 0 0 0
0 0 0 0 0 0 0 0 0 0 0 0 0 0 0 0 0 0 0 0 0 0 0 0 0 0 0 0 0 0 0 0 0 0 0 0 0 0 0 0 0 0 0
0 0 0 0 0 0 0 0 0 0 0 0 0 0 0 0 0 0 0 0 0 0 0 0 0 0 0 0 0 0 0 0 0 0 0 0 0 0 0 0 0 0 0
0 0 0 0 0 0 0 0 0 0 0 0 0 0 0 0 0 0 0 0 0 0 0 0 0 0 0 0 0 0 0 0 0 0 0 0 0 0 0 0 0 0 0
Wind_Speed_500mb
31 24 32 37 33 39 38 39 42 31 32 60 49 43 45 38 37 33 27 24 23 21 23 25 19 26 27 30 32 34 34 36 38 42 43 41 40 39 34 29 30 32 23
32 34 27 34 41 40 43 42 41 38 38 45 41 42 45 41 35 28 27 32 33 29 27 30 31 33 32 34 37 40 41 42 39 39 41 45 38 33 18 14 22 28 28
39 46 39 28 32 47 49 50 46 42 42 45 48 46 42 40 41 38 40 40 35 38 38 39 39 37 39 41 43 45 46 46 42 39 37 21 13 12 16 16 15 24 29
54 52 46 39 33 37 50 54 53 51 51 51 53 46 45 43 39 36 38 40 45 40 39 41 43 43 43 43 44 44 45 43 46 40 39 46 45 29 25 22 24 24 23
55 55 61 51 41 41 46 53 57 58 53 54 51 50 49 47 43 43 44 44 40 36 33 36 39 41 43 43 44 42 41 40 41 39 38 40 35 40 44 39 37 34 31
51 49 42 60 56 47 46 49 54 53 54 56 56 53 51 49 48 44 42 41 39 38 38 37 38 39 39 38 37 36 34 34 35 36 38 31 31 36 30 35 36 38 34
53 47 46 57 62 57 51 51 54 52 47 48 51 51 49 46 43 41 41 40 38 37 36 35 35 34 34 35 36 37 38 39 39 39 36 32 36 40 42 41 38 38 32
43 54 50 52 63 58 51 48 45 44 45 46 45 44 42 40 38 36 34 33 35 37 36 33 33 34 36 37 38 38 39 39 39 43 37 35 37 40 40 40 38 35 29
11 43 53 49 55 60 54 50 49 46 46 45 42 40 39 37 36 34 32 33 33 35 33 32 34 35 35 36 36 36 36 37 38 40 36 32 27 28 32 31 30 35 29
2 7 38 45 47 56 54 49 47 47 44 42 41 38 35 33 33 32 28 30 30 31 30 32 34 36 37 37 37 38 36 36 38 39 33 34 28 29 31 35 35 36 38
5 7 15 38 48 47 48 49 48 47 45 40 40 33 33 30 24 27 26 26 26 28 33 34 34 35 35 35 36 36 35 35 36 33 33 34 30 32 31 33 35 35 34
7 15 20 27 40 46 47 48 48 44 41 40 32 27 27 22 22 24 27 28 30 33 35 33 33 32 32 32 34 34 33 33 33 33 30 32 34 33 34 38 38 36 34
3 8 17 24 37 45 46 47 49 49 50 47 44 36 42 52 57 49 44 41 40 36 33 33 33 33 33 33 33 34 33 31 30 30 30 28 28 30 32 29 25 22 23
13 11 14 22 35 42 44 46 48 48 49 50 48 49 54 49 40 31 31 32 32 33 32 32 32 33 33 33 34 33 33 32 29 28 26 23 21 21 20 18 17 19 20
25 20 18 20 27 38 42 43 44 44 45 44 39 34 33 30 29 28 27 28 30 30 32 33 34 36 35 33 32 29 28 27 24 23 22 19 19 18 14 13 14 15 15
29 29 32 32 33 38 44 45 45 45 42 40 36 34 34 30 26 27 28 27 28 30 31 33 34 34 30 27 26 23 20 16 17 18 16 12 11 12 13 14 16 16 16
25 30 31 41 44 42 43 47 46 45 44 41 39 36 32 29 29 28 27 27 28 29 30 31 30 28 24 21 21 20 17 18 18 14 13 13 13 13 11 12 14 15 16
38 36 32 31 49 41 42 41 42 45 45 43 42 38 33 30 29 29 29 28 27 26 26 26 25 25 21 19 17 13 16 16 15 15 15 13 12 13 11 11 11 11 9
36 39 39 33 33 49 47 47 46 46 46 45 42 37 32 30 31 31 31 29 28 28 27 26 25 22 18 17 17 17 17 17 17 16 15 12 12 11 11 11 10 10 7
32 29 29 38 37 43 59 57 51 48 49 46 40 34 31 30 32 31 30 28 28 28 25 23 23 22 21 21 20 19 19 18 16 16 16 14 13 10 9 10 8 8 8
28 27 28 32 39 39 63 63 53 46 40 38 35 34 30 30 31 30 28 24 25 24 23 23 24 24 24 23 22 20 19 18 18 18 18 15 11 9 9 10 10 10 8
16 13 13 14 17 30 55 52 47 37 37 36 33 30 27 29 29 28 24 23 22 20 23 25 26 26 27 25 23 21 18 19 18 19 18 15 13 11 11 10 12 11 9
10 8 8 12 18 25 29 33 36 36 34 29 29 27 28 29 26 25 23 24 20 22 25 27 28 29 29 28 25 21 19 18 18 19 16 16 15 14 12 12 14 14 13
3 2 2 8 14 19 21 22 22 23 24 26 27 29 30 29 26 23 21 22 22 26 28 30 31 31 33 32 28 26 25 22 20 19 18 18 18 18 18 18 17 17 18
7 5 2 2 4 7 11 14 16 18 21 23 26 29 28 29 26 23 19 21 21 25 27 30 28 31 34 27 26 27 27 25 24 27 28 27 24 23 22 22 22 21 21
17 18 11 8 5 7 10 11 14 16 20 25 26 28 27 26 26 25 21 20 19 23 27 28 31 30 28 31 31 30 29 29 30 36 35 31 30 30 27 27 26 25 24
Wind_Direction_500mb
183 195 203 199 197 195 204 210 209 203 215 203 208 198 195 208 203 201 206 223 231 240 252 263 253 250 258 259 265 269 275 277 282 284 288 290 298 295 301 296 278 278 266
213 202 201 207 207 201 199 213 211 206 192 203 212 210 205 206 205 213 205 214 224 231 239 245 250 246 252 260 261 263 268 271 278 283 289 294 292 298 283 294 276 262 256
221 209 202 212 205 213 210 212 213 210 210 206 203 213 213 208 207 213 224 223 232 232 239 244 251 255 257 258 262 265 269 273 273 270 273 286 276 267 281 290 246 263 274
240 228 221 211 209 217 214 211 211 207 209 214 214 210 222 214 210 215 227 240 238 245 247 252 260 265 267 270 273 273 274 268 271 269 258 255 262 275 284 272 267 268 264
236 235 222 227 222 216 220 216 214 216 213 219 220 217 217 218 220 218 227 236 243 250 254 256 260 265 270 272 273 274 273 273 274 272 264 266 268 259 259 273 275 276 265
232 239 232 230 221 220 220 221 218 218 215 217 218 215 220 222 223 223 228 235 244 252 258 264 269 272 272 273 273 274 274 273 272 269 265 262 260 267 267 262 266 267 256
230 229 234 218 214 212 215 223 224 219 217 217 216 219 222 222 223 225 229 236 246 257 266 271 274 274 275 275 275 276 276 275 273 272 271 261 254 256 260 265 262 262 261
231 228 228 221 216 220 218 214 217 216 216 217 217 219 221 222 223 226 235 248 259 267 270 272 273 275 277 278 279 278 276 274 273 273 276 265 256 252 255 263 259 275 260
249 226 226 221 220 219 221 221 215 211 211 214 212 215 220 222 226 232 242 254 262 265 269 274 279 280 280 280 279 277 276 274 274 273 274 267 256 252 255 243 256 246 256
297 233 216 221 224 223 219 215 217 213 212 210 215 210 214 219 228 235 245 253 257 258 269 278 278 279 280 280 279 278 276 272 270 272 268 265 257 250 250 251 255 255 250
252 226 222 217 215 217 220 220 215 212 207 213 217 207 220 227 232 246 247 255 260 272 274 274 277 278 280 280 278 277 275 274 274 271 267 264 248 246 249 250 251 253 250
234 250 250 229 210 219 221 219 219 217 220 213 209 219 232 246 271 272 271 269 277 277 275 277 278 278 279 279 277 275 273 273 273 274 264 257 249 249 247 249 252 254 249
293 247 232 235 225 225 227 224 220 218 216 206 200 215 257 273 269 263 272 279 280 277 278 281 281 280 279 276 275 275 274 272 270 267 268 266 259 253 251 249 246 241 240
220 247 232 229 232 235 236 233 230 227 219 216 224 235 242 240 238 247 257 265 268 271 277 279 280 281 279 276 272 269 268 266 261 259 259 259 257 255 244 238 232 235 238
216 231 238 248 242 240 234 232 231 226 222 222 220 215 218 229 240 252 261 265 271 276 279 283 284 281 275 271 267 263 262 266 265 254 247 246 251 245 231 219 221 227 228
227 238 246 244 244 238 228 221 220 219 216 217 218 219 225 236 250 256 261 268 271 274 278 283 282 282 277 266 262 256 254 250 244 245 237 214 211 222 226 230 231 234 236
270 268 263 252 255 241 225 216 217 218 219 219 218 224 234 245 253 260 269 271 273 275 278 280 283 284 279 259 253 252 233 230 234 220 214 214 218 223 224 230 241 239 238
288 277 271 272 244 242 229 227 224 222 220 219 221 228 238 249 257 264 269 273 270 273 281 287 283 280 273 242 238 224 209 204 202 215 225 228 224 212 206 212 211 224 209
297 290 267 268 247 232 227 225 225 227 225 225 227 233 241 252 260 268 274 279 277 281 284 282 276 275 258 231 220 214 207 206 212 220 223 217 221 220 210 206 193 212 213
294 273 258 253 248 234 226 222 224 225 228 226 229 234 243 251 259 265 270 267 267 274 278 266 263 260 244 227 220 218 217 217 215 216 225 221 222 226 211 208 207 210 212
300 269 269 259 248 243 220 218 221 227 231 226 227 234 242 252 259 265 272 266 268 276 261 254 252 250 230 221 220 224 225 223 221 221 223 225 221 230 230 214 219 225 232
305 281 264 254 234 213 206 211 218 225 226 227 229 234 244 250 258 269 273 274 280 263 250 247 243 240 223 220 223 225 222 223 227 228 226 228 230 234 236 232 234 243 240
323 287 234 202 180 182 197 216 221 225 227 228 235 241 246 252 263 271 277 277 266 253 247 244 242 239 226 223 222 224 223 228 233 234 234 236 239 244 243 239 242 250 251
315 13 151 187 205 212 214 217 221 224 229 234 237 243 244 250 259 267 275 275 261 252 245 242 238 231 225 223 224 224 227 232 238 242 243 243 243 245 244 246 249 250 253
208 183 155 136 155 191 199 204 214 227 234 241 245 249 249 257 261 263 270 278 266 254 251 246 240 233 225 225 233 234 238 244 246 248 250 253 254 252 253 253 253 254 255
221 228 252 250 235 249 243 242 240 240 242 241 244 251 253 258 262 261 261 269 271 256 251 242 235 232 231 229 234 236 239 242 244 251 252 255 256 256 257 258 257 257 257
Wind_Speed_850mb
31 24 32 37 33 39 38 39 42 31 32 60 49 43 45 38 37 33 27 24 23 21 23 25 19 26 27 30 32 34 34 36 38 42 43 41 40 39 34 29 30 32 23
32 34 27 34 41 40 43 42 41 38 38 45 41 42 45 41 35 28 27 32 33 29 27 30 31 33 32 34 37 40 41 42 39 39 41 45 38 33 18 14 22 28 28
39 46 39 28 32 47 49 50 46 42 42 45 48 46 42 40 41 38 40 40 35 38 38 39 39 37 39 41 43 45 46 46 42 39 37 21 13 12 16 16 15 24 29
54 52 46 39 33 37 50 54 53 51 51 51 53 46 45 43 39 36 38 40 45 40 39 41 43 43 43 43 44 44 45 43 46 40 39 46 45 29 25 22 24 24 23
55 55 61 51 41 41 46 53 57 58 53 54 51 50 49 47 43 43 44 44 40 36 33 36 39 41 43 43 44 42 41 40 41 39 38 40 35 40 44 39 37 34 31
51 49 42 60 56 47 46 49 54 53 54 56 56 53 51 49 48 44 42 41 39 38 38 37 38 39 39 38 37 36 34 34 35 36 38 31 31 36 30 35 36 38 34
53 47 46 57 62 57 51 51 54 52 47 48 51 51 49 46 43 41 41 40 38 37 36 35 35 34 34 35 36 37 38 39 39 39 36 32 36 40 42 41 38 38 32
43 54 50 52 63 58 51 48 45 44 45 46 45 44 42 40 38 36 34 33 35 37 36 33 33 34 36 37 38 38 39 39 39 43 37 35 37 40 40 40 38 35 29
11 43 53 49 55 60 54 50 49 46 46 45 42 40 39 37 36 34 32 33 33 35 33 32 34 35 35 36 36 36 36 37 38 40 36 32 27 28 32 31 30 35 29
2 7 38 45 47 56 54 49 47 47 44 42 41 38 35 33 33 32 28 30 30 31 30 32 34 36 37 37 37 38 36 36 38 39 33 34 28 29 31 35 35 36 38
5 7 15 38 48 47 48 49 48 47 45 40 40 33 33 30 24 27 26 26 26 28 33 34 34 35 35 35 36 36 35 35 36 33 33 34 30 32 31 33 35 35 34
7 15 20 27 40 46 47 48 48 44 41 40 32 27 27 22 22 24 27 28 30 33 35 33 33 32 32 32 34 34 33 33 33 33 30 32 34 33 34 38 38 36 34
3 8 17 24 37 45 46 47 49 49 50 47 44 36 42 52 57 49 44 41 40 36 33 33 33 33 33 33 33 34 33 31 30 30 30 28 28 30 32 29 25 22 23
13 11 14 22 35 42 44 46 48 48 49 50 48 49 54 49 40 31 31 32 32 33 32 32 32 33 33 33 34 33 33 32 29 28 26 23 21 21 20 18 17 19 20
25 20 18 20 27 38 42 43 44 44 45 44 39 34 33 30 29 28 27 28 30 30 32 33 34 36 35 33 32 29 28 27 24 23 22 19 19 18 14 13 14 15 15
29 29 32 32 33 38 44 45 45 45 42 40 36 34 34 30 26 27 28 27 28 30 31 33 34 34 30 27 26 23 20 16 17 18 16 12 11 12 13 14 16 16 16
25 30 31 41 44 42 43 47 46 45 44 41 39 36 32 29 29 28 27 27 28 29 30 31 30 28 24 21 21 20 17 18 18 14 13 13 13 13 11 12 14 15 16
38 36 32 31 49 41 42 41 42 45 45 43 42 38 33 30 29 29 29 28 27 26 26 26 25 25 21 19 17 13 16 16 15 15 15 13 12 13 11 11 11 11 9
36 39 39 33 33 49 47 47 46 46 46 45 42 37 32 30 31 31 31 29 28 28 27 26 25 22 18 17 17 17 17 17 17 16 15 12 12 11 11 11 10 10 7
32 29 29 38 37 43 59 57 51 48 49 46 40 34 31 30 32 31 30 28 28 28 25 23 23 22 21 21 20 19 19 18 16 16 16 14 13 10 9 10 8 8 8
28 27 28 32 39 39 63 63 53 46 40 38 35 34 30 30 31 30 28 24 25 24 23 23 24 24 24 23 22 20 19 18 18 18 18 15 11 9 9 10 10 10 8
16 13 13 14 17 30 55 52 47 37 37 36 33 30 27 29 29 28 24 23 22 20 23 25 26 26 27 25 23 21 18 19 18 19 18 15 13 11 11 10 12 11 9
10 8 8 12 18 25 29 33 36 36 34 29 29 27 28 29 26 25 23 24 20 22 25 27 28 29 29 28 25 21 19 18 18 19 16 16 15 14 12 12 14 14 13
3 2 2 8 14 19 21 22 22 23 24 26 27 29 30 29 26 23 21 22 22 26 28 30 31 31 33 32 28 26 25 22 20 19 18 18 18 18 18 18 17 17 18
7 5 2 2 4 7 11 14 16 18 21 23 26 29 28 29 26 23 19 21 21 25 27 30 28 31 34 27 26 27 27 25 24 27 28 27 24 23 22 22 22 21 21
17 18 11 8 5 7 10 11 14 16 20 25 26 28 27 26 26 25 21 20 19 23 27 28 31 30 28 31 31 30 29 29 30 36 35 31 30 30 27 27 26 25 24
Wind_Direction_850mb
183 195 203 199 197 195 204 210 209 203 215 203 208 198 195 208 203 201 206 223 231 240 252 263 253 250 258 259 265 269 275 277 282 284 288 290 298 295 301 296 278 278 266
213 202 201 207 207 201 199 213 211 206 192 203 212 210 205 206 205 213 205 214 224 231 239 245 250 246 252 260 261 263 268 271 278 283 289 294 292 298 283 294 276 262 256
221 209 202 212 205 213 210 212 213 210 210 206 203 213 213 208 207 213 224 223 232 232 239 244 251 255 257 258 262 265 269 273 273 270 273 286 276 267 281 290 246 263 274
240 228 221 211 209 217 214 211 211 207 209 214 214 210 222 214 210 215 227 240 238 245 247 252 260 265 267 270 273 273 274 268 271 269 258 255 262 275 284 272 267 268 264
236 235 222 227 222 216 220 216 214 216 213 219 220 217 217 218 220 218 227 236 243 250 254 256 260 265 270 272 273 274 273 273 274 272 264 266 268 259 259 273 275 276 265
232 239 232 230 221 220 220 221 218 218 215 217 218 215 220 222 223 223 228 235 244 252 258 264 269 272 272 273 273 274 274 273 272 269 265 262 260 267 267 262 266 267 256
230 229 234 218 214 212 215 223 224 219 217 217 216 219 222 222 223 225 229 236 246 257 266 271 274 274 275 275 275 276 276 275 273 272 271 261 254 256 260 265 262 262 261
231 228 228 221 216 220 218 214 217 216 216 217 217 219 221 222 223 226 235 248 259 267 270 272 273 275 277 278 279 278 276 274 273 273 276 265 256 252 255 263 259 275 260
249 226 226 221 220 219 221 221 215 211 211 214 212 215 220 222 226 232 242 254 262 265 269 274 279 280 280 280 279 277 276 274 274 273 274 267 256 252 255 243 256 246 256
297 233 216 221 224 223 219 215 217 213 212 210 215 210 214 219 228 235 245 253 257 258 269 278 278 279 280 280 279 278 276 272 270 272 268 265 257 250 250 251 255 255 250
252 226 222 217 215 217 220 220 215 212 207 213 217 207 220 227 232 246 247 255 260 272 274 274 277 278 280 280 278 277 275 274 274 271 267 264 248 246 249 250 251 253 250
234 250 250 229 210 219 221 219 219 217 220 213 209 219 232 246 271 272 271 269 277 277 275 277 278 278 279 279 277 275 273 273 273 274 264 257 249 249 247 249 252 254 249
293 247 232 235 225 225 227 224 220 218 216 206 200 215 257 273 269 263 272 279 280 277 278 281 281 280 279 276 275 275 274 272 270 267 268 266 259 253 251 249 246 241 240
220 247 232 229 232 235 236 233 230 227 219 216 224 235 242 240 238 247 257 265 268 271 277 279 280 281 279 276 272 269 268 266 261 259 259 259 257 255 244 238 232 235 238
216 231 238 248 242 240 234 232 231 226 222 222 220 215 218 229 240 252 261 265 271 276 279 283 284 281 275 271 267 263 262 266 265 254 247 246 251 245 231 219 221 227 228
227 238 246 244 244 238 228 221 220 219 216 217 218 219 225 236 250 256 261 268 271 274 278 283 282 282 277 266 262 256 254 250 244 245 237 214 211 222 226 230 231 234 236
270 268 263 252 255 241 225 216 217 218 219 219 218 224 234 245 253 260 269 271 273 275 278 280 283 284 279 259 253 252 233 230 234 220 214 214 218 223 224 230 241 239 238
288 277 271 272 244 242 229 227 224 222 220 219 221 228 238 249 257 264 269 273 270 273 281 287 283 280 273 242 238 224 209 204 202 215 225 228 224 212 206 212 211 224 209
297 290 267 268 247 232 227 225 225 227 225 225 227 233 241 252 260 268 274 279 277 281 284 282 276 275 258 231 220 214 207 206 212 220 223 217 221 220 210 206 193 212 213
294 273 258 253 248 234 226 222 224 225 228 226 229 234 243 251 259 265 270 267 267 274 278 266 263 260 244 227 220 218 217 217 215 216 225 221 222 226 211 208 207 210 212
300 269 269 259 248 243 220 218 221 227 231 226 227 234 242 252 259 265 272 266 268 276 261 254 252 250 230 221 220 224 225 223 221 221 223 225 221 230 230 214 219 225 232
305 281 264 254 234 213 206 211 218 225 226 227 229 234 244 250 258 269 273 274 280 263 250 247 243 240 223 220 223 225 222 223 227 228 226 228 230 234 236 232 234 243 240
323 287 234 202 180 182 197 216 221 225 227 228 235 241 246 252 263 271 277 277 266 253 247 244 242 239 226 223 222 224 223 228 233 234 234 236 239 244 243 239 242 250 251
315 13 151 187 205 212 214 217 221 224 229 234 237 243 244 250 259 267 275 275 261 252 245 242 238 231 225 223 224 224 227 232 238 242 243 243 243 245 244 246 249 250 253
208 183 155 136 155 191 199 204 214 227 234 241 245 249 249 257 261 263 270 278 266 254 251 246 240 233 225 225 233 234 238 244 246 248 250 253 254 252 253 253 253 254 255
221 228 252 250 235 249 243 242 240 240 242 241 244 251 253 258 262 261 261 269 271 256 251 242 235 232 231 229 234 236 239 242 244 251 252 255 256 256 257 258 257 257 257